Date String (YYYY-MM-DD hh:mm:ss) UTC,Instrument flags,absolute air pressure of the measurement (hPa),sample flow rate (lpm),inlet stack bypass flow (lpm),air temperature of the measurement (°C),ambient temperature measured by the external sensor (°C),aerosol sample conditioner tube jacket temperature (°C),OPC LED temperature (°C),internal box temperature (°C),relative humidity of the measurement (%),span deviation,mass concentration of particles derived from Lorenz-Mie calculation of OPC scattering (μg/m³),mass concentration of particles derived from Lorenz-Mie calculation of OPC scattering (μg/m³),mass concentration of particles derived from Lorenz-Mie calculation of OPC scattering (μg/m³)
DateTimeUTC,F1_M11,P_M11,Q1_M11,Q2_M11,T1_M11,T2_M11,T3_M11,T4_M11,T5_M11,U1_M11,ZSPAN_M11,X2_M11,X0_M11,X1_M11
2023-11-10 05:00:00,SystemResetWarning,0833.9,5.01,000.00,023.7,022.4,000.0,032.2,025.0,10.7,0000.0,0004.63,0009.53,0003.89
2023-11-10 05:01:00,SystemResetWarning,0833.9,5.00,000.00,023.7,022.4,000.0,032.2,025.0,10.6,0000.0,0004.59,0009.88,0003.86
2023-11-10 05:02:00,SystemResetWarning,0833.9,4.99,000.00,023.6,022.4,000.0,032.2,025.0,10.6,0000.0,0004.53,0010.17,0003.83
2023-11-10 05:03:00,SystemResetWarning,0833.9,4.99,000.00,023.6,022.4,000.0,032.1,025.0,10.6,0000.0,0004.49,0010.09,0003.81
2023-11-10 05:04:00,SystemResetWarning,0833.9,5.01,000.00,023.6,022.4,000.0,032.1,025.0,10.7,0000.0,0004.48,0010.13,0003.80
2023-11-10 05:05:00,SystemResetWarning,0833.9,5.01,000.00,023.6,022.3,000.0,032.1,025.0,10.8,0000.0,0004.46,0010.19,0003.79
2023-11-10 05:06:00,SystemResetWarning,0833.9,5.00,000.00,023.6,022.3,000.0,032.1,024.9,10.9,0000.0,0004.47,0010.45,0003.78
2023-11-10 05:07:00,SystemResetWarning,0833.8,5.00,000.00,023.6,022.2,000.0,032.1,024.9,10.9,0000.0,0004.50,0011.03,0003.77
2023-11-10 05:08:00,SystemResetWarning,0833.9,4.99,000.00,023.6,022.2,000.0,032.1,024.9,10.9,0000.0,0004.55,0010.68,0003.78
2023-11-10 05:09:00,SystemResetWarning,0833.9,4.99,000.00,023.6,022.2,000.0,032.1,024.9,10.9,0000.0,0004.56,0010.90,0003.78
2023-11-10 05:10:00,SystemResetWarning,0833.9,4.99,000.00,023.5,022.2,000.0,032.1,024.9,10.9,0000.0,0004.52,0011.15,0003.79
2023-11-10 05:11:00,SystemResetWarning,0833.8,5.01,000.00,023.5,022.2,000.0,032.0,024.9,10.9,0000.0,0004.52,0011.48,0003.81
2023-11-10 05:12:00,SystemResetWarning,0833.8,5.01,000.00,023.5,022.2,000.0,032.0,024.9,10.8,0000.0,0004.53,0011.30,0003.82
2023-11-10 05:13:00,SystemResetWarning,0833.8,5.00,000.00,023.5,022.2,000.0,032.0,024.9,10.7,0000.0,0004.55,0011.67,0003.82
2023-11-10 05:14:00,SystemResetWarning,0833.8,4.99,000.00,023.5,022.2,000.0,032.0,024.9,10.7,0000.0,0004.58,0011.91,0003.82
2023-11-10 05:15:00,SystemResetWarning,0833.8,4.99,000.00,023.5,022.2,000.0,032.0,024.8,10.7,0000.0,0004.57,0011.88,0003.82
2023-11-10 05:16:00,SystemResetWarning,0833.8,5.00,000.00,023.5,022.2,000.0,032.0,024.8,10.8,0000.0,0004.58,0011.90,0003.82
2023-11-10 05:17:00,SystemResetWarning,0833.8,5.01,000.00,023.5,022.2,000.0,032.0,024.7,10.9,0000.0,0004.64,0011.89,0003.83
2023-11-10 05:18:00,SystemResetWarning,0833.8,5.01,000.00,023.4,022.2,000.0,032.0,024.7,11.1,0000.0,0004.64,0011.07,0003.84
2023-11-10 05:19:00,SystemResetWarning,0833.8,5.00,000.00,023.4,022.1,000.0,031.9,024.7,11.1,0000.0,0004.63,0010.76,0003.84
2023-11-10 05:20:00,SystemResetWarning,0833.8,5.00,000.00,023.4,022.1,000.0,031.9,024.7,11.1,0000.0,0004.64,0010.89,0003.84
2023-11-10 05:21:00,SystemResetWarning,0833.8,5.00,000.00,023.4,022.1,000.0,031.9,024.6,11.3,0000.0,0004.72,0010.84,0003.84
2023-11-10 05:22:00,SystemResetWarning,0833.8,5.00,000.00,023.3,022.1,000.0,031.9,024.6,11.1,0000.0,0004.75,0010.82,0003.83
2023-11-10 05:23:00,SystemResetWarning,0833.7,5.00,000.00,023.3,022.1,000.0,031.9,024.6,11.0,0000.0,0004.75,0010.89,0003.83
2023-11-10 05:24:00,SystemResetWarning,0833.8,5.00,000.00,023.3,022.0,000.0,031.9,024.6,11.0,0000.0,0004.74,0010.22,0003.83
2023-11-10 05:25:00,SystemResetWarning,0833.7,5.00,000.00,023.3,022.0,000.0,031.9,024.6,11.1,0000.0,0004.74,0009.95,0003.84
2023-11-10 05:26:00,SystemResetWarning,0833.7,5.00,000.00,023.3,022.0,000.0,031.8,024.5,11.1,0000.0,0004.74,0009.92,0003.86
2023-11-10 05:27:00,SystemResetWarning,0833.7,5.00,000.00,023.3,022.0,000.0,031.8,024.6,11.1,0000.0,0004.74,0009.85,0003.87
2023-11-10 05:28:00,SystemResetWarning,0833.7,5.00,000.00,023.3,022.0,000.0,031.8,024.6,11.1,0000.0,0004.71,0009.70,0003.88
2023-11-10 05:29:00,SystemResetWarning,0833.7,5.00,000.00,023.2,022.0,000.0,031.8,024.5,11.0,0000.0,0004.71,0009.79,0003.88
2023-11-10 05:30:00,SystemResetWarning,0833.7,5.00,000.00,023.2,022.0,000.0,031.8,024.5,10.9,0000.0,0004.69,0009.81,0003.88
2023-11-10 05:31:00,SystemResetWarning,0833.7,5.00,000.00,023.2,022.0,000.0,031.8,024.6,11.0,0000.0,0004.71,0010.11,0003.89
2023-11-10 05:32:00,SystemResetWarning,0833.6,5.00,000.00,023.2,022.0,000.0,031.7,024.5,11.0,0000.0,0004.73,0009.72,0003.91
2023-11-10 05:33:00,SystemResetWarning,0833.7,4.99,000.00,023.2,022.0,000.0,031.7,024.5,10.9,0000.0,0004.70,0009.57,0003.92
2023-11-10 05:34:00,SystemResetWarning,0833.7,5.00,000.00,023.2,022.0,000.0,031.7,024.5,10.9,0000.0,0004.71,0009.75,0003.93
2023-11-10 05:35:00,SystemResetWarning,0833.7,4.99,000.00,023.2,022.0,000.0,031.7,024.5,10.8,0000.0,0004.79,0010.49,0003.96
2023-11-10 05:36:00,SystemResetWarning,0833.7,5.00,000.00,023.2,022.0,000.0,031.7,024.5,10.8,0000.0,0004.83,0010.57,0003.97
2023-11-10 05:37:00,SystemResetWarning,0833.7,4.99,000.00,023.2,021.9,000.0,031.7,024.5,10.8,0000.0,0004.83,0010.43,0003.98
2023-11-10 05:38:00,SystemResetWarning,0833.7,5.00,000.00,023.1,021.9,000.0,031.7,024.5,10.9,0000.0,0004.85,0010.61,0003.98
2023-11-10 05:39:00,SystemResetWarning,0833.7,5.01,000.00,023.1,021.9,000.0,031.7,024.5,11.1,0000.0,0004.84,0011.21,0003.99
2023-11-10 05:40:00,SystemResetWarning,0833.7,5.00,000.00,023.1,021.9,000.0,031.6,024.5,11.5,0000.0,0004.86,0011.47,0004.00
2023-11-10 05:41:00,SystemResetWarning,0833.7,5.00,000.00,023.1,021.9,000.0,031.6,024.4,11.7,0000.0,0004.89,0011.49,0004.02
2023-11-10 05:42:00,SystemResetWarning,0833.6,5.00,000.00,023.1,021.8,000.0,031.6,024.4,11.8,0000.0,0004.94,0011.83,0004.02
2023-11-10 05:43:00,SystemResetWarning,0833.7,5.00,000.00,023.1,021.8,000.0,031.6,024.4,11.6,0000.0,0004.94,0011.80,0004.03
2023-11-10 05:44:00,SystemResetWarning,0833.6,4.99,000.00,023.1,021.8,000.0,031.6,024.3,11.6,0000.0,0004.90,0011.46,0004.03
2023-11-10 05:45:00,SystemResetWarning,0833.7,4.99,000.00,023.0,021.8,000.0,031.6,024.3,11.5,0000.0,0004.88,0011.02,0004.02
2023-11-10 05:46:00,SystemResetWarning,0833.6,4.99,000.00,023.0,021.8,000.0,031.6,024.3,11.6,0000.0,0004.82,0010.27,0004.01
2023-11-10 05:47:00,SystemResetWarning,0833.6,5.00,000.00,023.0,021.8,000.0,031.5,024.3,11.5,0000.0,0004.79,0010.42,0004.01
2023-11-10 05:48:00,SystemResetWarning,0833.6,5.00,000.00,023.0,021.8,000.0,031.5,024.3,11.2,0000.0,0004.76,0010.35,0004.01
2023-11-10 05:49:00,SystemResetWarning,0833.6,5.00,000.00,023.0,021.7,000.0,031.5,024.3,11.1,0000.0,0004.75,0010.54,0004.01
2023-11-10 05:50:00,SystemResetWarning,0833.6,5.00,000.00,023.0,021.7,000.0,031.5,024.3,11.0,0000.0,0004.75,0009.97,0004.01
2023-11-10 05:51:00,SystemResetWarning,0833.6,5.00,000.00,023.0,021.8,000.0,031.5,024.3,10.9,0000.0,0004.72,0009.72,0004.01
2023-11-10 05:52:00,SystemResetWarning,0833.6,5.00,000.00,023.0,021.8,000.0,031.5,024.3,10.8,0000.0,0004.70,0009.75,0004.00
2023-11-10 05:53:00,SystemResetWarning,0833.6,5.00,000.00,023.0,021.7,000.0,031.5,024.3,10.8,0000.0,0004.65,0009.33,0003.99
2023-11-10 05:54:00,SystemResetWarning,0833.5,5.00,000.00,023.0,021.7,000.0,031.5,024.2,11.4,0000.0,0004.60,0009.01,0003.99
2023-11-10 05:55:00,SystemResetWarning,0833.5,5.00,000.00,022.9,021.7,000.0,031.5,024.2,11.7,0000.0,0004.62,0009.67,0003.97
2023-11-10 05:56:00,SystemResetWarning,0833.5,4.99,000.00,022.9,021.7,000.0,031.4,024.2,11.5,0000.0,0004.60,0009.78,0003.96
2023-11-10 05:57:00,SystemResetWarning,0833.5,4.99,000.00,022.9,021.7,000.0,031.4,024.2,11.2,0000.0,0004.58,0009.62,0003.95
2023-11-10 05:58:00,SystemResetWarning,0833.4,4.99,000.00,022.9,021.7,000.0,031.4,024.2,11.0,0000.0,0004.56,0009.29,0003.94
2023-11-10 05:59:00,SystemResetWarning,0833.4,5.01,000.00,022.9,021.7,000.0,031.4,024.2,11.0,0000.0,0004.55,0009.34,0003.92
